| time (UTC) | temp F | wind direction | speed knots | gust knots | rain 1hr in | rain 24hr in | rain mn in | humidity % | barometer mb |
| 20260504141304 | 57 | 257 | 19.1 | 30.4 | 0.00 | 0.00 | 0.00 | 50 | 1018.0 |
| 20260504140805 | 57 | 269 | 17.4 | 21.7 | 0.00 | 0.00 | 0.00 | 49 | 1017.8 |
| 20260504140304 | 57 | 243 | 11.3 | 19.1 | 0.00 | 0.00 | 0.00 | 47 | 1018.0 |
| 20260504130804 | 53 | 270 | 3.5 | 8.7 | 0.00 | 0.00 | 0.00 | 53 | 1018.4 |
| 20260504130304 | 53 | 311 | 1.7 | 2.6 | 0.00 | 0.00 | 0.00 | 59 | 1018.7 |
| 20260504120304 | 48 | 58 | 1.7 | 1.7 | 0.00 | 0.00 | 0.00 | 60 | 1018.7 |
| 20260504110303 | 47 | 256 | 0.0 | 4.3 | 0.00 | 0.00 | 0.00 | 60 | 1018.9 |
| 20260504100304 | 46 | 225 | 0.0 | 1.7 | 0.00 | 0.00 | 0.00 | 62 | 1019.2 |
| 20260504081808 | 47 | 278 | 5.2 | 7.8 | 0.00 | 0.00 | 0.00 | 56 | 1018.8 |
| 20260504081307 | 47 | 270 | 2.6 | 6.1 | 0.00 | 0.00 | 0.00 | 56 | 1018.7 |
| 20260504080807 | 46 | 260 | 3.5 | 5.2 | 0.00 | 0.00 | 0.00 | 59 | 1019.1 |
| 20260504080307 | 46 | 263 | 4.3 | 6.1 | 0.00 | 0.00 | 0.00 | 58 | 1019.0 |
| 20260504050306 | 43 | 250 | 0.0 | 0.9 | 0.00 | 0.00 | 0.00 | 56 | 1020.5 |
| 20260504045807 | 44 | 288 | 0.0 | 0.9 | 0.00 | 0.00 | 0.00 | 55 | 1020.5 |
| 20260504045307 | 44 | 247 | 0.0 | 0.0 | 0.00 | 0.00 | 0.00 | 52 | 1020.5 |
| 20260504044807 | 44 | 247 | 0.0 | 0.0 | 0.00 | 0.00 | 0.00 | 53 | 1020.1 |
| 20260504044307 | 45 | 247 | 0.0 | 0.9 | 0.00 | 0.00 | 0.00 | 53 | 1020.2 |
| 20260504043807 | 45 | 247 | 0.9 | 1.7 | 0.00 | 0.00 | 0.00 | 52 | 1020.1 |
| 20260504043307 | 44 | 251 | 0.9 | 1.7 | 0.00 | 0.00 | 0.00 | 53 | 1020.1 |
| 20260504042807 | 44 | 252 | 1.7 | 1.7 | 0.00 | 0.00 | 0.00 | 54 | 1020.2 |
| 20260504042307 | 44 | 238 | 0.9 | 1.7 | 0.00 | 0.00 | 0.00 | 53 | 1020.3 |
| 20260504041807 | 44 | 235 | 0.9 | 1.7 | 0.00 | 0.00 | 0.00 | 53 | 1020.0 |
| 20260504041307 | 46 | 170 | 0.0 | 0.0 | 0.00 | 0.00 | 0.00 | 48 | 1019.8 |
| 20260504040806 | 46 | 170 | 0.0 | 0.0 | 0.00 | 0.00 | 0.00 | 46 | 1019.6 |
| 20260504040307 | 47 | 170 | 0.0 | 0.9 | 0.00 | 0.00 | 0.00 | 44 | 1019.6 |
| 20260504035807 | 47 | 170 | 0.9 | 0.9 | 0.00 | 0.00 | 0.00 | 44 | 1019.5 |
| 20260504034807 | 46 | 227 | 0.9 | 1.7 | 0.00 | 0.00 | 0.00 | 47 | 1019.9 |
| 20260504034307 | 46 | 179 | 0.0 | 0.0 | 0.00 | 0.00 | 0.00 | 46 | 1019.5 |
| 20260504033807 | 46 | 179 | 0.0 | 1.7 | 0.00 | 0.00 | 0.00 | 46 | 1019.6 |
| 20260504033307 | 45 | 213 | 1.7 | 1.7 | 0.00 | 0.00 | 0.00 | 49 | 1020.0 |
| 20260504032806 | 44 | 216 | 0.9 | 2.6 | 0.00 | 0.00 | 0.00 | 50 | 1020.4 |
| 20260504032306 | 43 | 213 | 1.7 | 2.6 | 0.00 | 0.00 | 0.00 | 55 | 1020.7 |
| 20260504030807 | 46 | 139 | 0.0 | 0.9 | 0.00 | 0.00 | 0.00 | 48 | 1019.9 |
| 20260504030306 | 45 | 139 | 0.9 | 0.9 | 0.00 | 0.00 | 0.00 | 47 | 1020.0 |
| 20260504025806 | 45 | 139 | 0.0 | 0.0 | 0.00 | 0.00 | 0.00 | 49 | 1019.8 |
| 20260504025306 | 45 | 139 | 0.0 | 0.0 | 0.00 | 0.00 | 0.00 | 48 | 1019.7 |
| 20260504024806 | 45 | 139 | 0.0 | 0.0 | 0.00 | 0.00 | 0.00 | 49 | 1020.0 |
| 20260504024306 | 46 | 139 | 0.0 | 0.9 | 0.00 | 0.00 | 0.00 | 49 | 1019.8 |
| 20260504023807 | 45 | 139 | 0.9 | 0.9 | 0.00 | 0.00 | 0.00 | 48 | 1019.8 |
| 20260504022807 | 45 | 139 | 0.9 | 0.9 | 0.00 | 0.00 | 0.00 | 49 | 1020.1 |
| 20260504022306 | 46 | 244 | 0.0 | 0.9 | 0.00 | 0.00 | 0.00 | 47 | 1019.6 |
| 20260504020806 | 46 | 241 | 1.7 | 2.6 | 0.00 | 0.00 | 0.00 | 46 | 1019.7 |
| 20260504020306 | 47 | 264 | 1.7 | 4.3 | 0.00 | 0.00 | 0.00 | 47 | 1019.5 |
| 20260504015806 | 47 | 262 | 2.6 | 4.3 | 0.00 | 0.00 | 0.00 | 45 | 1019.1 |
| 20260504015307 | 48 | 259 | 1.7 | 2.6 | 0.00 | 0.00 | 0.00 | 44 | 1018.9 |
| 20260504014807 | 48 | 251 | 1.7 | 2.6 | 0.00 | 0.00 | 0.00 | 43 | 1018.8 |
| 20260504014307 | 47 | 242 | 2.6 | 5.2 | 0.00 | 0.00 | 0.00 | 44 | 1019.0 |
| 20260504013807 | 47 | 254 | 3.5 | 5.2 | 0.00 | 0.00 | 0.00 | 45 | 1019.2 |
| 20260504013306 | 48 | 271 | 4.3 | 5.2 | 0.00 | 0.00 | 0.00 | 43 | 1018.9 |
| 20260504012806 | 49 | 253 | 0.9 | 2.6 | 0.00 | 0.00 | 0.00 | 43 | 1018.8 |
| 20260504012306 | 49 | 252 | 1.7 | 2.6 | 0.00 | 0.00 | 0.00 | 41 | 1018.6 |
| 20260504011806 | 49 | 245 | 1.7 | 4.3 | 0.00 | 0.00 | 0.00 | 40 | 1018.6 |
| 20260504011307 | 49 | 242 | 1.7 | 2.6 | 0.00 | 0.00 | 0.00 | 41 | 1018.4 |
| 20260504010306 | 49 | 244 | 1.7 | 4.3 | 0.00 | 0.00 | 0.00 | 41 | 1018.3 |
| 20260504005307 | 50 | 260 | 2.6 | 4.3 | 0.00 | 0.00 | 0.00 | 39 | 1018.0 |
| 20260504004807 | 50 | 236 | 2.6 | 7.0 | 0.00 | 0.00 | 0.00 | 40 | 1018.1 |
| 20260504004306 | 49 | 248 | 4.3 | 6.1 | 0.00 | 0.00 | 0.00 | 40 | 1017.9 |
| 20260504003806 | 49 | 275 | 5.2 | 6.1 | 0.00 | 0.00 | 0.00 | 40 | 1018.1 |
| 20260504003307 | 50 | 261 | 2.6 | 4.3 | 0.00 | 0.00 | 0.00 | 40 | 1017.9 |
| 20260504002806 | 51 | 264 | 2.6 | 4.3 | 0.00 | 0.00 | 0.00 | 39 | 1017.4 |
| 20260504002306 | 51 | 252 | 2.6 | 4.3 | 0.00 | 0.00 | 0.00 | 38 | 1017.4 |
| 20260504001806 | 51 | 269 | 2.6 | 4.3 | 0.00 | 0.00 | 0.00 | 37 | 1017.6 |
| 20260504001306 | 51 | 267 | 4.3 | 4.3 | 0.00 | 0.00 | 0.00 | 38 | 1017.5 |
| 20260504000806 | 52 | 269 | 4.3 | 4.3 | 0.00 | 0.00 | 0.00 | 38 | 1017.4 |
| 20260504000306 | 52 | 264 | 2.6 | 5.2 | 0.00 | 0.00 | 0.00 | 38 | 1017.2 |
| 20260503235806 | 53 | 260 | 2.6 | 6.1 | 0.00 | 0.00 | 0.00 | 38 | 1017.3 |
| 20260503235306 | 53 | 285 | 3.5 | 6.1 | 0.00 | 0.00 | 0.00 | 36 | 1017.0 |
| 20260503234806 | 54 | 284 | 4.3 | 6.1 | 0.00 | 0.00 | 0.00 | 34 | 1017.1 |
| 20260503234306 | 55 | 282 | 4.3 | 6.1 | 0.00 | 0.00 | 0.00 | 36 | 1016.9 |
| 20260503233806 | 55 | 298 | 5.2 | 7.8 | 0.00 | 0.00 | 0.00 | 33 | 1016.5 |
| 20260503233306 | 55 | 267 | 7.0 | 7.8 | 0.00 | 0.00 | 0.00 | 33 | 1016.7 |
| 20260503232806 | 56 | 297 | 5.2 | 6.1 | 0.00 | 0.00 | 0.00 | 32 | 1016.4 |
| 20260503231806 | 56 | 272 | 6.1 | 10.4 | 0.00 | 0.00 | 0.00 | 32 | 1016.0 |
| 20260503231306 | 57 | 269 | 5.2 | 8.7 | 0.00 | 0.00 | 0.00 | 33 | 1016.1 |
| 20260503230805 | 57 | 304 | 5.2 | 13.0 | 0.00 | 0.00 | 0.00 | 31 | 1016.1 |
| 20260503230306 | 57 | 280 | 8.7 | 13.0 | 0.00 | 0.00 | 0.00 | 29 | 1015.9 |
| 20260503225806 | 58 | 273 | 9.6 | 13.0 | 0.00 | 0.00 | 0.00 | 28 | 1015.6 |
| 20260503225306 | 57 | 271 | 6.1 | 7.0 | 0.00 | 0.00 | 0.00 | 31 | 1015.9 |
| 20260503224806 | 58 | 300 | 4.3 | 7.0 | 0.00 | 0.00 | 0.00 | 31 | 1015.9 |
| 20260503224306 | 58 | 278 | 4.3 | 7.8 | 0.00 | 0.00 | 0.00 | 32 | 1015.7 |
| 20260503223306 | 57 | 309 | 4.3 | 8.7 | 0.00 | 0.00 | 0.00 | 30 | 1015.8 |
| 20260503222806 | 58 | 298 | 5.2 | 8.7 | 0.00 | 0.00 | 0.00 | 31 | 1015.8 |
| 20260503222306 | 59 | 295 | 5.2 | 7.0 | 0.00 | 0.00 | 0.00 | 29 | 1015.6 |
| 20260503221805 | 59 | 278 | 5.2 | 11.3 | 0.00 | 0.00 | 0.00 | 30 | 1015.6 |
| 20260503221305 | 58 | 292 | 2.6 | 10.4 | 0.00 | 0.00 | 0.00 | 30 | 1016.0 |
| 20260503220305 | 59 | 305 | 5.2 | 11.3 | 0.00 | 0.00 | 0.00 | 28 | 1015.8 |
| 20260503215806 | 58 | 273 | 7.0 | 14.8 | 0.00 | 0.00 | 0.00 | 28 | 1015.9 |
| 20260503215305 | 59 | 272 | 8.7 | 14.8 | 0.00 | 0.00 | 0.00 | 27 | 1015.7 |
| 20260503214805 | 58 | 246 | 5.2 | 11.3 | 0.00 | 0.00 | 0.00 | 26 | 1015.9 |
| 20260503214306 | 59 | 290 | 5.2 | 7.8 | 0.00 | 0.00 | 0.00 | 27 | 1015.9 |
| 20260503213806 | 58 | 310 | 4.3 | 10.4 | 0.00 | 0.00 | 0.00 | 28 | 1016.1 |
| 20260503213305 | 59 | 298 | 4.3 | 10.4 | 0.00 | 0.00 | 0.00 | 29 | 1015.8 |
| 20260503212805 | 59 | 289 | 6.1 | 8.7 | 0.00 | 0.00 | 0.00 | 28 | 1015.7 |
| 20260503212306 | 59 | 263 | 6.1 | 8.7 | 0.00 | 0.00 | 0.00 | 27 | 1016.0 |
| 20260503211806 | 59 | 288 | 6.1 | 10.4 | 0.00 | 0.00 | 0.00 | 28 | 1015.8 |
| 20260503211306 | 58 | 305 | 6.1 | 10.4 | 0.00 | 0.00 | 0.00 | 28 | 1016.1 |
| 20260503210806 | 59 | 298 | 6.1 | 10.4 | 0.00 | 0.00 | 0.00 | 26 | 1016.2 |
| 20260503210306 | 59 | 324 | 2.6 | 4.3 | 0.00 | 0.00 | 0.00 | 28 | 1019.0 |
| 20260503205305 | 59 | 324 | 2.6 | 14.8 | 0.00 | 0.00 | 0.00 | 28 | 1016.0 |
| 20260503204305 | 56 | 21 | 4.3 | 14.8 | 0.00 | 0.00 | 0.00 | 31 | 1016.6 |
| 20260503203805 | 58 | 332 | 2.6 | 5.2 | 0.00 | 0.00 | 0.00 | 31 | 1018.8 |
| 20260503202806 | 58 | 320 | 2.6 | 5.2 | 0.00 | 0.00 | 0.00 | 31 | 1019.3 |
| 20260503201805 | 58 | 320 | 2.6 | 5.2 | 0.00 | 0.00 | 0.00 | 31 | 1019.2 |
| 20260503200306 | 58 | 320 | 2.6 | 5.2 | 0.00 | 0.00 | 0.00 | 31 | 1019.7 |
| 20260503195805 | 58 | 320 | 2.6 | 5.2 | 0.00 | 0.00 | 0.00 | 31 | 1019.7 |
| 20260503194806 | 58 | 320 | 2.6 | 5.2 | 0.00 | 0.00 | 0.00 | 31 | 1019.5 |
| 20260503194305 | 58 | 320 | 2.6 | 5.2 | 0.00 | 0.00 | 0.00 | 31 | 1017.0 |
| 20260503193805 | 58 | 320 | 2.6 | 7.8 | 0.00 | 0.00 | 0.00 | 31 | 1017.0 |
| 20260503192806 | 55 | 250 | 7.0 | 7.8 | 0.00 | 0.00 | 0.00 | 28 | 1020.0 |
| 20260503192305 | 55 | 250 | 7.0 | 7.8 | 0.00 | 0.00 | 0.00 | 28 | 1020.0 |
| 20260503191806 | 55 | 250 | 7.0 | 7.8 | 0.00 | 0.00 | 0.00 | 28 | 1019.9 |
| 20260503191305 | 55 | 250 | 7.0 | 7.8 | 0.00 | 0.00 | 0.00 | 28 | 1019.9 |
| 20260503190805 | 55 | 250 | 7.0 | 7.8 | 0.00 | 0.00 | 0.00 | 28 | 1019.9 |
| 20260503190306 | 55 | 250 | 7.0 | 7.8 | 0.00 | 0.00 | 0.00 | 28 | 1020.2 |
| 20260503185805 | 55 | 250 | 7.0 | 7.8 | 0.00 | 0.00 | 0.00 | 28 | 1020.2 |
| 20260503185305 | 55 | 250 | 7.0 | 7.8 | 0.00 | 0.00 | 0.00 | 28 | 1020.0 |
| 20260503184805 | 55 | 250 | 7.0 | 7.8 | 0.00 | 0.00 | 0.00 | 28 | 1020.2 |
| 20260503183805 | 55 | 250 | 7.0 | 7.8 | 0.00 | 0.00 | 0.00 | 28 | 1018.2 |
| 20260503183304 | 56 | 257 | 5.2 | 7.8 | 0.00 | 0.00 | 0.00 | 31 | 1018.1 |
| 20260503182806 | 56 | 259 | 4.3 | 6.1 | 0.00 | 0.00 | 0.00 | 32 | 1018.6 |
| 20260503182306 | 54 | 347 | 4.3 | 5.2 | 0.00 | 0.00 | 0.00 | 31 | 1018.4 |
| 20260503181805 | 54 | 77 | 0.9 | 1.7 | 0.00 | 0.00 | 0.00 | 32 | 1020.4 |
| 20260503181305 | 55 | 88 | 0.9 | 0.9 | 0.00 | 0.00 | 0.00 | 32 | 1020.7 |
| 20260503180805 | 55 | 88 | 0.9 | 0.9 | 0.00 | 0.00 | 0.00 | 32 | 1018.8 |
| 20260503175805 | 53 | 333 | 4.3 | 6.1 | 0.00 | 0.00 | 0.00 | 34 | 1019.1 |
| 20260503175305 | 53 | 333 | 4.3 | 6.1 | 0.00 | 0.00 | 0.00 | 34 | 1019.3 |
| 20260503174805 | 54 | 273 | 5.2 | 6.1 | 0.00 | 0.00 | 0.00 | 31 | 1019.3 |
| 20260503174305 | 53 | 302 | 3.5 | 6.1 | 0.00 | 0.00 | 0.00 | 34 | 1019.1 |
| 20260503173805 | 53 | 283 | 4.3 | 12.2 | 0.00 | 0.00 | 0.00 | 33 | 1019.4 |
| 20260503173305 | 54 | 303 | 2.6 | 8.7 | 0.00 | 0.00 | 0.00 | 34 | 1019.1 |
| 20260503171805 | 54 | 9 | 1.7 | 6.1 | 0.00 | 0.00 | 0.00 | 31 | 1019.4 |
| 20260503171305 | 53 | 1 | 3.5 | 10.4 | 0.00 | 0.00 | 0.00 | 33 | 1019.7 |
| 20260503170805 | 53 | 306 | 5.2 | 7.8 | 0.00 | 0.00 | 0.00 | 33 | 1019.8 |
| 20260503170305 | 52 | 339 | 0.9 | 6.1 | 0.00 | 0.00 | 0.00 | 34 | 1020.0 |
| 20260503150804 | 46 | 280 | 5.2 | 10.4 | 0.00 | 0.00 | 0.00 | 42 | 1021.8 |
| 20260503150304 | 46 | 283 | 6.1 | 7.8 | 0.00 | 0.00 | 0.00 | 44 | 1022.0 |